Regional Weather Roundup
Issued by NWS Burlington, VT

Home | Current Version | Previous Version | Text Only | Print | Product List | Glossary On
Versions: 1 2 3 4 5 6 7 8 9 10 11 12 13 14 15 16 17 18 19 20 21 22 23 24 25 26 27 28 29 30 31 32 33 34 35 36 37 38 39 40 41 42 43 44 45 46 47 48 49 50
515
ASUS41 KBTV 062010
RWRBTV
VERMONT REGIONAL WEATHER ROUNDUP
NATIONAL WEATHER SERVICE BURLINGTON VT
300 PM EST TUE DEC 06 2016

NOTE: "FAIR" INDICATES FEW OR NO CLOUDS BELOW 12,000 FEET WITH NO
SIGNIFICANT WEATHER AND/OR OBSTRUCTIONS TO VISIBILITY.

* THESE REPORTS ARE NOT UNDER NWS QUALITY CONTROL AND/OR DO NOT
  REPORT WEATHER SUCH AS PRECIPITATION AND FOG.

VTZ001>019-062100-
_____VERMONT_____


CITY           SKY/WX    TMP DP  RH WIND       PRES   REMARKS
BURLINGTON     MOCLDY    34  26  72 N5        30.06F WCI  30
MONTPELIER     CLOUDY    29  24  82 NE6       30.06F WCI  23
MORRISVILLE    CLOUDY    30  22  72 NE6       30.07F WCI  24
ST. JOHNSBURY*   N/A     33  23  66 MISG      30.04F
LYNDONVILLE*   FAIR      28  22  77 CALM      30.05F
MIDDLEBURY*    FAIR      34  28  80 CALM      30.03F
RUTLAND*       PTCLDY    35  28  75 NW7       30.02S WCI  29
SPRINGFIELD    CLOUDY    36  26  67 E5        30.03F
HIGHGATE*      CLOUDY    31  26  79 CALM      30.08S
NEWPORT*       CLOUDY    28  22  76 CALM      30.07R
BENNINGTON     MOSUNNY   41  29  62 N3        29.98F
SUTTON*          N/A     28 N/A N/A MISG        N/A

_____LAKE CHAMPLAIN_____


CITY           SKY/WX    TMP DP  RH WIND       PRES   REMARKS
BURTON ISLAND*   N/A     34  28  80 NE2         N/A
COLCHESTER RF*   N/A     34  30  86 E5          N/A  WCI  30
DIAMOND ISL*     N/A     36  30  80 NE2         N/A

$$

NYZ007-026>031-035-052-083-087-062100-
_____NORTHERN NEW YORK_____


CITY           SKY/WX    TMP DP  RH WIND       PRES   REMARKS
PLATTSBURGH    CLOUDY    33  26  75 NE3       30.06F
SARANAC LAKE   CLEAR     32  28  85 E9        29.93F WCI  24
MASSENA        CLEAR     36  27  69 NE10      30.03F WCI  28
OGDENSBURG*    SUNNY     36  30  80 NE5       30.00F WCI  32
POTSDAM*       SUNNY     36  32  87 NE5       29.99F WCI  32
WATERTOWN      MOSUNNY   40  30  67 NE10      29.94F
ALBANY         CLOUDY    41  30  65 NE6       30.02S
GLENS FALLS    CLOUDY    37  29  72 E5        30.02F

$$
NHZ002-005-011-062100-
_____NEW HAMPSHIRE_____


CITY           SKY/WX    TMP DP  RH WIND       PRES   REMARKS
LEBANON        PTCLDY    36  29  75 NE7       30.03F WCI  30
KEENE          CLOUDY    36  33  89 CALM      30.03F
MT WASHINGTON  MOCLDY    23   3  42 N17         N/A  WCI   9
PLYMOUTH         N/A     35  24  63 W3        30.04S
WHITEFIELD     CLOUDY    30  20  66 CALM      30.03F

$$

_____REGIONAL QUEBEC LOCATIONS_____


CITY           SKY/WX    TMP DP  RH WIND       PRES   REMARKS

_____REGIONAL ONTARIO LOCATIONS_____


CITY           SKY/WX    TMP DP  RH WIND       PRES   REMARKS

______KEY______
VSB  - VISIBILITY IN MILES
WCI  - WIND CHILL INDEX
HX   - HEAT INDEX
$$
NNNN




USA.gov is the U.S. government's official web portal to all federal, state and local government web resources and services.